TimePST,TemperatureF,Dew PointF,Humidity,Sea Level PressureIn,VisibilityMPH,Wind Direction,Wind SpeedMPH,Gust SpeedMPH,PrecipitationIn,Events,Conditions,WindDirDegrees,DateUTC
12:40 AM,41.0,39.2,93,30.21,0.5,Calm,Calm,-,N/A,Fog,Fog,0,2011-11-17 08:40:00
12:54 AM,41.0,39.0,93,30.18,0.5,Calm,Calm,-,N/A,Fog,Fog,0,2011-11-17 08:54:00
1:00 AM,39.2,39.2,100,30.20,0.8,Calm,Calm,-,N/A,,Overcast,0,2011-11-17 09:00:00
1:05 AM,41.0,39.2,93,30.20,2.5,Calm,Calm,-,N/A,,Overcast,0,2011-11-17 09:05:00
1:13 AM,41.0,39.2,93,30.20,5.0,Calm,Calm,-,N/A,,Overcast,0,2011-11-17 09:13:00
1:52 AM,41.0,39.2,93,30.20,1.8,Calm,Calm,-,N/A,,Mostly Cloudy,0,2011-11-17 09:52:00
1:54 AM,41.0,39.9,96,30.17,1.0,Calm,Calm,-,N/A,,Mostly Cloudy,0,2011-11-17 09:54:00
1:58 AM,41.0,39.2,93,30.20,0.5,Calm,Calm,-,N/A,Fog,Fog,0,2011-11-17 09:58:00
2:00 AM,41.0,39.2,93,30.20,0.8,Calm,Calm,-,N/A,,Scattered Clouds,0,2011-11-17 10:00:00
2:05 AM,39.2,39.2,100,30.20,0.8,Calm,Calm,-,N/A,,Mist,0,2011-11-17 10:05:00
2:14 AM,39.2,37.4,93,30.20,0.5,Calm,Calm,-,N/A,Fog,Fog,0,2011-11-17 10:14:00
2:54 AM,41.0,39.9,96,30.18,0.8,North,3.5,-,N/A,,Mostly Cloudy,10,2011-11-17 10:54:00
2:57 AM,39.2,39.2,100,30.20,2.0,North,3.5,-,N/A,,Scattered Clouds,10,2011-11-17 10:57:00
3:04 AM,39.2,39.2,100,30.20,6.0,Calm,Calm,-,N/A,,Partly Cloudy,0,2011-11-17 11:04:00
3:16 AM,39.2,37.4,93,30.20,1.8,Calm,Calm,-,N/A,,Clear,0,2011-11-17 11:16:00
3:25 AM,39.2,39.2,100,30.20,3.0,North,3.5,-,N/A,,Clear,10,2011-11-17 11:25:00
3:40 AM,39.2,39.2,100,30.19,1.8,Calm,Calm,-,N/A,,Clear,0,2011-11-17 11:40:00
3:52 AM,37.4,37.4,100,30.19,0.8,Calm,Calm,-,N/A,,Clear,0,2011-11-17 11:52:00
3:54 AM,37.0,37.0,100,30.16,0.8,North,3.5,-,N/A,,Mist,350,2011-11-17 11:54:00
4:02 AM,41.0,39.2,93,30.19,0.5,NNW,3.5,-,N/A,Fog,Fog,330,2011-11-17 12:02:00
4:13 AM,37.4,37.4,100,30.19,0.2,Calm,Calm,-,N/A,Fog,Fog,0,2011-11-17 12:13:00
4:21 AM,37.4,37.4,100,30.18,0.2,Calm,Calm,-,N/A,Fog,Fog,0,2011-11-17 12:21:00
4:48 AM,39.2,37.4,93,30.19,0.2,Calm,Calm,-,N/A,Fog,Fog,0,2011-11-17 12:48:00
4:54 AM,37.9,37.9,100,30.16,0.2,Calm,Calm,-,N/A,Fog,Fog,0,2011-11-17 12:54:00
5:16 AM,41.0,39.2,93,30.19,1.0,Calm,Calm,-,N/A,,Overcast,0,2011-11-17 13:16:00
5:44 AM,42.8,42.8,100,30.18,0.8,SE,3.5,-,N/A,,Overcast,130,2011-11-17 13:44:00
5:54 AM,43.0,42.1,97,30.16,0.5,Calm,Calm,-,N/A,Fog,Fog,0,2011-11-17 13:54:00
6:35 AM,42.8,41.0,93,30.19,1.0,Calm,Calm,-,N/A,,Overcast,0,2011-11-17 14:35:00
6:39 AM,42.8,41.0,93,30.19,2.5,Calm,Calm,-,N/A,,Overcast,0,2011-11-17 14:39:00
6:46 AM,42.8,41.0,93,30.19,4.0,Calm,Calm,-,N/A,,Overcast,0,2011-11-17 14:46:00
6:54 AM,42.1,41.0,96,30.17,4.0,Calm,Calm,-,N/A,,Overcast,0,2011-11-17 14:54:00
6:59 AM,42.8,41.0,93,30.19,1.8,Calm,Calm,-,N/A,,Overcast,0,2011-11-17 14:59:00
7:09 AM,42.8,42.8,100,30.19,3.0,Calm,Calm,-,N/A,,Overcast,0,2011-11-17 15:09:00
7:22 AM,42.8,41.0,93,30.19,2.0,Calm,Calm,-,N/A,,Overcast,0,2011-11-17 15:22:00
7:32 AM,44.6,42.8,93,30.19,5.0,Calm,Calm,-,N/A,,Overcast,0,2011-11-17 15:32:00
7:50 AM,46.4,46.4,100,30.19,1.8,NNW,3.5,-,N/A,,Overcast,330,2011-11-17 15:50:00
7:54 AM,46.9,46.0,97,30.17,0.8,Calm,Calm,-,N/A,,Overcast,0,2011-11-17 15:54:00
8:01 AM,46.4,46.4,100,30.20,0.2,NNW,3.5,-,N/A,Fog,Fog,330,2011-11-17 16:01:00
8:54 AM,48.9,48.0,97,30.17,0.2,NNW,4.6,-,N/A,Fog,Fog,340,2011-11-17 16:54:00
9:18 AM,48.2,48.2,100,30.19,3.0,Calm,Calm,-,N/A,,Overcast,0,2011-11-17 17:18:00
9:54 AM,50.0,48.9,96,30.17,10.0,Calm,Calm,-,N/A,,Scattered Clouds,0,2011-11-17 17:54:00
10:03 AM,50.0,48.2,94,30.19,10.0,SW,4.6,-,N/A,,Scattered Clouds,230,2011-11-17 18:03:00
10:54 AM,57.0,48.9,74,30.15,10.0,SW,6.9,-,N/A,,Scattered Clouds,220,2011-11-17 18:54:00
11:54 AM,63.0,48.9,60,30.10,10.0,WSW,12.7,19.6,N/A,,Clear,250,2011-11-17 19:54:00
12:54 PM,64.9,51.1,61,30.07,10.0,WSW,13.8,-,N/A,,Mostly Cloudy,240,2011-11-17 20:54:00
1:54 PM,63.0,51.1,65,30.06,10.0,West,15.0,-,N/A,,Mostly Cloudy,270,2011-11-17 21:54:00
2:54 PM,61.0,51.1,70,30.05,10.0,West,11.5,-,N/A,,Mostly Cloudy,270,2011-11-17 22:54:00
3:23 PM,62.6,51.8,68,30.07,10.0,West,12.7,-,N/A,,Overcast,270,2011-11-17 23:23:00
3:54 PM,60.1,52.0,75,30.04,10.0,West,9.2,-,N/A,,Mostly Cloudy,270,2011-11-17 23:54:00
4:42 PM,57.2,51.8,82,30.06,10.0,West,11.5,-,N/A,,Mostly Cloudy,260,2011-11-18 00:42:00
4:54 PM,57.9,51.1,78,30.04,10.0,West,6.9,-,N/A,,Mostly Cloudy,270,2011-11-18 00:54:00
5:10 PM,57.2,51.8,82,30.06,10.0,WSW,6.9,-,N/A,,Overcast,250,2011-11-18 01:10:00
5:54 PM,57.0,52.0,83,30.03,10.0,WSW,8.1,-,N/A,,Overcast,240,2011-11-18 01:54:00
6:54 PM,57.0,52.0,83,30.03,10.0,WSW,10.4,-,N/A,,Overcast,240,2011-11-18 02:54:00
7:54 PM,55.9,52.0,87,30.02,10.0,WSW,10.4,-,N/A,,Overcast,240,2011-11-18 03:54:00
8:05 PM,55.4,51.8,88,30.05,10.0,WSW,9.2,-,N/A,,Mostly Cloudy,240,2011-11-18 04:05:00
8:54 PM,55.0,50.0,83,30.03,10.0,WSW,11.5,-,N/A,,Clear,240,2011-11-18 04:54:00
9:54 PM,52.0,46.9,83,30.04,10.0,West,9.2,-,N/A,,Partly Cloudy,260,2011-11-18 05:54:00
10:54 PM,48.9,46.0,90,30.04,10.0,West,6.9,-,N/A,,Clear,270,2011-11-18 06:54:00
11:54 PM,48.9,46.0,90,30.04,10.0,WSW,6.9,-,N/A,,Scattered Clouds,250,2011-11-18 07:54:00